Skip Page Navigation
NASA JPL Caltech
NASA Logo - Jet Propulsion Laboratory + View the NASA Portal
+ Center for Near-Earth Object Studies
JPL Home Earth Solar System Stars & Galaxies Technology
JPL Solar System Dynamics
BODIES ORBITS EPHEMERIDES TOOLS PHYSICAL DATA DISCOVERY FAQ SITE MAP
IMPORTANT: The SSD Announcement email list is now available. Major changes are coming in the near future, including possible hostname and/or URL changes. To be notified of such changes, subscribe to this email list.

Please visit this page for more details.


JPL Small-Body Database Browser
Search: [ help ]  
245836 (2006 KL22)
Classification: Main-belt Asteroid          SPK-ID: 2245836
Ephemeris | Orbit Diagram | Orbital Elements | Mission Design | Physical Parameters | Discovery Circumstances ]

[ show orbit diagram ]
Orbital Elements at Epoch 2459000.5 (2020-May-31.0) TDB
Reference: JPL 10 (heliocentric ecliptic J2000)
 Element Value Uncertainty (1-sigma)   Units 
e .1534914268417964 8.0966e-08  
a 2.585220639925177 3.022e-08 au
q 2.1884114352022 2.053e-07 au
i 16.96380990333939 7.0593e-06 deg
node 78.8916605292526 3.3203e-05 deg
peri 243.2187200226435 4.3767e-05 deg
M 64.85822112788257 3.0763e-05 deg
tp 2458726.968478600338
(2019-Aug-31.46847860)
0.00012809 TDB
period 1518.255449987133
4.16
2.6622e-05
7.289e-08
d
yr
n .2371142484639532 4.1577e-09 deg/d
Q 2.982029844648155 3.4859e-08 au
  Orbit Determination Parameters
   # obs. used (total)      143  
   data-arc span      5850 days (16.02 yr)  
   first obs. used      2002-06-04  
   last obs. used      2018-06-10  
   planetary ephem.      DE431  
   SB-pert. ephem.      SB431-N16  
   condition code      0  
   norm. resid. RMS      .62354  
   source      ORB  
   producer      Otto Matic  
   solution date      2019-Jul-14 07:54:12  

Additional Information
 Earth MOID = 1.22759 au 
 Jupiter MOID = 2.35741 au 
 T_jup = 3.345 
[ show covariance matrix ]

Ephemeris | Orbit Diagram | Orbital Elements | Mission Design | Physical Parameters | Discovery Circumstances ]

Physical Parameter Table
Parameter Symbol Value Units Sigma Reference Notes
absolute magnitude H 16.2   n/a MPO437145  

245836 (2006 KL22)          Discovered 2006-May-20 by CSS at Catalina
Reference: 20100726/Numbers.arcLast Updated: 2010-07-28
Ephemeris | Orbit Diagram | Orbital Elements | Mission Design | Physical Parameters | Discovery Circumstances ]
ABOUT SSD CREDITS/AWARDS PRIVACY/COPYRIGHT GLOSSARY LINKS
FirstGov 2020-Apr-10 07:37 UT
(server date/time)  
NASA Home Page
Site Manager:   Ryan S. Park
Webmaster  Alan B. Chamberlin